Location: Indian Hills
(32.9760°N, 85.9450°W)
Time: 10:35:56
(UTC+00:00)

Cosmos 1023 Rocket - Pass Details

Date: 09 December 2019
Orbit: 736 x 773 km, 74.1° (Epoch: 21 January)

Event Time Altitude Azimuth Distance (km) Brightness Sun altitude
Rises 00:10:51 0° 189° (S) 3,149 8.0 -19.2°
Reaches altitude 10° 00:13:11 10° 186° (S) 2,230 7.2 -19.7°
Maximum altitude 00:18:11 68° 104° (ESE) 790 4.3 -20.7°
Enters shadow 00:20:06 38° 33° (NNE) 1,127 5.0 -21.1°
